Location: Borbetomagus
(49.6328°N, 8.3592°E)
Time: 09:53:02
(UTC+00:00)

Cosmos 1743 Rocket - Pass Details

Date: 19 May 2025
Orbit: 598 x 626 km, 82.6° (Epoch: 23 June)

Event Time Altitude Azimuth Distance (km) Brightness Sun altitude
Rises 23:20:18 0° 346° (NNW) 2,925 8.5 -20.4°
Reaches altitude 10° 23:22:34 10° 343° (NNW) 2,011 7.3 -20.4°
Maximum altitude 23:26:57 58° 265° (W) 731 3.8 -20.4°
Enters shadow 23:27:52 47° 218° (SW) 831 3.8 -20.4°
